Location: Hawks Ness
(60.2333°N, 1.1667°W)
Time: 17:32:31
(UTC+00:00)

Cosmos 2208 Rocket - Pass Details

Date: 22 October 2019
Orbit: 755 x 805 km, 74.0° (Epoch: 12 November)

Event Time Altitude Azimuth Distance (km) Brightness Sun altitude
Exits shadow 04:30:45 - 327° (NNW) 3,013 6.9 -19.2°
Reaches altitude 10° 04:32:35 10° 328° (NNW) 2,302 6.3 -19.0°
Maximum altitude 04:37:49 79° 55° (NE) 787 4.1 -18.3°
Drops below altitude 10° 04:43:04 10° 143° (SE) 2,313 6.8 -17.7°
Sets 04:45:27 0° 145° (SE) 3,244 7.6 -17.4°
